Theta_e
306 309 315 319 323 325 331 336 337 340 338 338 341 338 329 330 330 329 332 331 326 325 324 323 325 323 326 330 331 333 334 345 346 339 338 340 337 340 342 340 341 340 338 336 338 341 339 336 335 340 340 338 340 339 337 333 330 330 331 331 327 324 328 334 335 335 335 334 333 331 327 328 329 330 331 326 324 329 332 332 334 334 335 336 335 336 336 335 336 336 334 328 320 317 318 319 319
306 310 317 321 325 325 334 338 341 345 340 339 341 339 334 335 332 330 330 328 326 324 323 323 326 326 330 334 333 334 334 339 339 334 338 339 339 341 340 341 341 339 339 337 339 341 337 334 336 341 339 338 339 339 337 334 334 334 334 332 331 329 330 333 334 334 335 334 331 331 330 332 333 333 334 327 325 331 334 334 334 334 335 334 335 336 335 333 334 335 330 321 317 317 318 319 320
306 313 319 323 326 330 340 339 342 343 339 342 343 341 334 333 332 330 329 328 326 322 325 325 327 327 331 341 335 334 337 340 341 339 339 340 341 341 341 342 340 340 339 337 340 339 336 335 338 340 339 339 338 338 338 336 336 335 334 332 332 331 330 333 333 334 335 333 331 332 331 333 334 334 334 325 324 332 334 335 334 335 334 331 332 335 335 334 334 332 324 317 316 317 318 321 322
308 317 321 325 329 337 347 342 346 345 342 344 339 339 337 332 330 329 328 328 328 325 326 327 329 325 328 342 336 335 340 340 341 343 343 340 340 341 341 341 340 341 339 339 338 336 337 337 338 339 340 338 335 336 337 337 336 334 333 332 332 331 330 332 333 334 335 332 331 333 333 333 334 334 334 327 326 333 334 335 335 335 334 333 333 335 335 335 334 329 319 315 316 316 321 326 326
312 321 321 326 333 336 342 339 342 341 339 344 335 334 334 330 326 325 325 326 328 328 327 327 329 325 329 337 336 340 342 339 336 338 342 340 340 341 341 341 341 340 340 339 334 336 339 338 338 338 338 336 334 335 337 337 335 334 332 332 332 331 331 332 332 333 335 333 331 334 334 334 335 334 335 331 331 334 334 335 335 335 335 336 335 336 336 335 333 327 318 317 318 318 324 328 328
315 323 323 324 327 329 337 339 341 341 337 340 337 333 328 323 321 321 323 325 326 326 326 327 325 327 340 340 334 341 340 340 339 337 339 340 340 340 342 341 341 341 340 337 332 335 339 339 338 338 336 335 336 335 337 336 334 334 332 333 332 330 331 332 332 333 335 335 332 334 335 335 336 336 336 334 334 335 335 335 336 336 337 337 336 337 336 335 333 330 325 323 321 318 322 327 329
316 322 328 329 327 328 339 343 346 344 334 332 333 328 322 316 316 321 323 326 327 325 324 325 323 325 339 337 330 337 338 339 339 338 338 339 341 340 341 340 341 340 339 336 331 335 339 339 337 337 335 334 335 334 335 333 334 334 332 333 331 330 332 332 332 333 335 334 333 334 335 336 336 337 337 336 335 335 336 336 336 336 336 336 336 336 336 335 334 333 331 329 325 321 319 323 327
318 325 330 335 336 332 336 340 342 339 331 330 327 320 316 312 315 321 320 322 326 325 323 322 324 325 332 333 333 336 336 340 339 338 339 339 341 341 342 340 341 340 340 336 330 334 339 339 337 336 335 335 335 334 334 333 334 333 332 333 331 331 333 333 330 333 335 334 334 334 335 336 337 337 337 338 336 336 337 337 336 336 336 335 334 333 332 333 333 332 330 330 328 325 321 320 324
318 324 327 333 337 333 334 336 336 332 330 327 316 312 312 308 314 318 316 319 321 320 322 321 322 324 331 340 346 340 336 340 340 339 340 340 341 341 341 340 341 340 340 336 331 334 337 339 337 335 334 334 334 333 333 334 334 332 332 332 331 331 334 333 328 333 336 334 335 334 336 337 338 338 338 338 337 337 337 337 337 336 335 334 334 332 330 329 329 329 328 327 328 328 325 321 321
319 323 327 330 331 332 334 332 333 331 327 324 313 309 310 306 313 316 313 318 318 318 321 321 323 325 330 343 348 341 338 340 340 340 340 341 341 341 341 340 341 340 340 335 331 333 337 338 337 335 334 333 334 333 333 333 333 332 333 332 331 332 334 331 327 334 336 334 335 335 336 337 338 338 338 339 338 338 337 337 337 336 336 334 334 332 330 329 327 327 326 326 327 328 328 325 322
327 327 328 329 331 332 330 328 333 336 325 319 314 309 307 307 313 314 311 315 315 318 320 319 325 326 328 342 345 337 337 340 340 340 340 341 341 342 340 340 341 340 340 335 331 333 336 337 338 335 334 334 333 333 332 332 333 332 333 332 331 333 333 328 327 335 335 334 336 336 337 337 338 337 338 339 338 338 337 337 337 336 335 333 333 331 329 327 325 325 325 326 328 329 329 328 325
327 328 332 334 332 330 328 328 330 337 326 313 312 309 306 308 312 312 311 313 314 318 318 316 318 322 329 343 342 335 336 337 339 339 339 341 341 341 341 340 340 339 339 336 332 333 335 336 338 336 334 334 332 333 332 332 334 333 333 331 331 334 331 326 331 336 335 335 336 336 338 337 337 337 338 338 337 337 337 337 336 335 334 332 330 330 328 325 324 324 324 326 328 329 329 329 328
323 327 335 327 324 326 325 328 327 330 325 310 309 307 306 311 311 310 310 312 315 316 315 313 312 321 334 340 338 334 333 334 338 340 339 340 340 340 340 340 340 339 338 336 333 333 334 336 337 335 334 334 331 332 332 333 334 333 333 330 333 335 330 328 333 335 334 336 335 337 337 337 337 337 337 337 337 336 335 335 334 333 331 330 328 328 327 325 325 323 323 326 328 329 328 328 328
319 325 332 320 319 324 320 324 323 324 321 308 308 306 306 312 310 309 310 312 316 314 313 311 309 323 333 335 336 332 331 333 338 341 340 340 340 340 340 339 339 338 338 336 334 333 335 336 337 334 333 333 331 332 333 335 334 333 333 330 334 335 329 330 333 334 334 335 336 337 337 336 336 336 336 336 335 334 334 333 331 329 328 328 327 327 328 326 324 322 323 325 327 328 327 328 328
314 322 332 325 322 321 315 316 314 319 318 307 307 306 307 311 309 309 309 310 315 312 311 308 309 321 323 323 326 325 329 333 338 341 340 341 339 339 339 338 338 337 338 336 335 334 335 337 336 334 334 333 331 331 334 335 334 334 333 331 334 333 329 331 333 334 334 335 336 336 336 336 335 334 334 333 333 332 331 330 328 328 328 328 328 328 328 326 324 322 323 325 327 326 325 327 328
313 325 332 327 322 319 314 311 310 316 316 308 306 305 307 309 308 309 308 307 311 311 310 307 308 315 311 310 314 320 330 333 338 342 340 341 340 340 339 338 338 337 337 337 336 335 335 336 334 334 335 333 331 332 333 334 334 334 332 331 333 332 330 333 334 334 335 335 336 336 336 335 334 333 332 331 331 330 329 329 329 329 329 328 328 328 327 326 324 322 323 325 326 326 325 325 325
315 328 329 321 316 314 310 308 309 311 310 307 305 304 307 308 306 307 306 306 308 310 310 306 306 309 307 308 307 315 328 331 335 339 339 341 340 339 339 339 338 337 337 336 337 336 336 336 334 335 335 333 332 332 333 331 331 332 332 332 332 331 331 333 334 334 335 335 335 336 336 335 335 333 331 331 330 329 329 330 330 329 329 328 328 327 327 326 325 322 322 325 326 326 326 324 322
318 323 318 313 308 309 307 305 306 305 306 305 304 304 306 307 306 305 306 307 306 307 307 305 305 307 306 307 306 311 326 331 331 332 333 336 337 338 337 339 339 337 337 335 336 336 337 336 335 335 334 333 332 333 332 330 329 331 332 332 331 329 331 333 333 334 335 335 335 336 336 336 335 334 333 331 330 330 330 330 329 329 328 328 327 327 327 326 326 323 321 324 327 327 326 325 323
314 315 310 307 304 305 306 305 305 304 305 304 304 304 305 307 306 305 305 306 306 306 306 305 306 306 305 306 305 312 323 327 328 330 330 331 333 334 337 340 339 338 337 335 335 335 336 336 335 335 334 333 332 333 333 330 329 331 330 330 329 329 331 333 333 333 334 334 334 336 336 336 335 334 333 332 331 331 331 330 329 329 328 327 326 326 327 327 326 325 322 323 325 327 327 326 324
308 309 307 305 303 303 305 305 303 303 303 304 304 304 305 306 305 305 305 305 305 305 305 305 304 304 305 304 305 312 317 319 322 326 328 331 332 332 335 338 338 339 339 337 335 335 336 335 335 335 334 333 332 333 334 332 330 331 330 329 330 332 332 332 333 333 333 333 334 336 336 336 335 334 334 333 332 332 331 330 329 329 327 326 325 325 327 327 326 325 324 322 323 324 326 327 326
306 306 306 303 302 303 303 302 302 302 302 303 304 304 305 305 304 304 304 306 306 304 304 303 303 304 303 303 308 312 315 316 319 322 326 330 331 331 331 332 334 337 338 338 337 336 335 335 334 334 334 333 332 331 332 332 330 329 329 330 332 332 333 332 332 332 332 333 334 335 336 335 335 335 334 333 333 333 332 330 329 328 327 326 325 325 326 327 327 326 325 324 323 322 324 327 325
304 304 304 302 302 303 302 301 301 301 302 303 304 303 304 303 304 304 304 306 306 304 304 303 303 303 302 305 310 312 313 315 317 320 324 326 327 328 328 329 330 332 334 335 336 336 336 336 335 335 335 334 332 330 329 330 330 329 330 331 333 333 333 333 332 332 332 333 335 336 336 336 335 335 334 334 333 333 332 331 330 328 327 326 325 324 324 326 327 326 325 325 324 322 323 325 325
305 304 305 304 302 302 301 301 300 301 303 303 302 302 302 303 304 304 304 304 304 304 304 302 303 304 306 308 309 310 311 311 313 316 318 319 319 319 322 325 326 328 329 330 332 334 334 335 334 335 335 335 334 332 330 329 328 329 330 332 333 333 333 333 332 332 332 334 335 336 336 336 335 335 334 334 334 334 333 331 330 328 328 327 325 324 323 324 325 325 325 324 323 323 323 324 324
306 306 305 305 303 301 301 301 301 303 302 301 302 303 303 304 304 303 303 303 303 304 304 304 305 306 306 307 307 308 307 308 309 312 312 312 312 312 313 317 320 322 325 327 329 331 331 332 333 334 335 336 335 335 335 331 328 328 331 332 332 332 332 332 331 331 333 335 335 336 336 336 336 335 334 335 334 333 333 331 329 328 328 326 325 324 323 323 323 323 323 322 322 323 323 323 323
307 306 306 306 303 301 301 301 303 303 302 301 302 303 303 304 304 302 301 302 302 303 305 306 305 304 304 304 305 304 304 305 306 307 308 308 307 307 309 310 314 317 318 320 325 328 329 330 331 332 333 335 335 334 335 334 332 331 331 331 331 331 331 331 331 331 334 335 335 336 336 336 335 335 335 335 334 333 332 331 329 328 327 326 325 324 323 322 322 322 321 321 321 322 323 323 323
306 306 306 305 302 301 302 302 303 304 303 303 303 303 302 303 304 302 301 300 300 302 304 305 304 303 302 303 303 302 302 303 303 304 305 305 304 305 305 306 309 311 313 315 320 324 326 328 329 330 331 332 334 334 334 335 334 333 330 329 329 329 329 329 330 332 334 335 335 336 336 336 335 335 335 334 333 333 332 331 330 328 326 325 325 324 323 323 323 322 321 321 321 321 322 322 322
305 307 305 304 302 302 302 302 303 302 303 304 304 304 302 302 303 302 300 299 299 301 302 302 302 302 301 301 300 301 301 301 301 302 303 303 303 302 302 303 305 307 310 312 316 320 324 327 328 328 329 331 333 334 334 334 335 334 331 326 325 326 325 326 328 329 331 333 334 336 336 336 335 334 334 334 333 332 332 331 329 327 326 325 325 324 324 323 323 323 322 321 321 321 321 321 321
304 305 305 303 303 303 302 303 302 302 303 303 304 305 303 302 302 300 299 298 298 299 300 300 301 300 300 299 299 299 299 299 300 300 301 301 301 301 300 301 302 303 306 307 310 317 323 325 326 327 328 330 332 333 333 333 333 334 332 328 325 324 324 325 325 325 325 327 331 335 336 335 335 334 334 333 332 332 331 329 326 326 326 325 324 324 324 324 324 323 323 322 321 321 321 321 321
303 302 305 305 304 304 302 302 302 302 304 301 303 306 304 302 301 300 299 298 297 297 298 298 299 299 299 298 298 298 298 298 298 298 299 299 300 299 299 299 300 301 303 304 308 316 321 322 323 324 326 329 330 332 332 332 332 333 333 331 329 327 326 326 326 326 324 322 324 329 333 335 334 334 334 333 333 332 329 326 325 325 325 325 324 324 324 324 324 324 323 322 322 322 322 321 321
304 303 305 307 307 306 302 302 302 303 304 301 304 308 304 302 300 300 299 297 297 296 296 296 297 297 297 297 297 296 297 297 297 297 297 298 298 298 298 298 298 299 300 303 307 312 317 319 322 322 324 327 327 330 331 332 332 332 333 332 332 331 330 329 329 330 329 326 326 328 332 333 333 333 332 331 330 329 327 326 325 325 324 324 323 324 325 325 325 324 324 323 322 322 322 322 322
304 305 304 305 307 306 303 302 302 304 305 302 305 307 303 302 300 299 299 297 296 296 296 295 296 296 296 296 296 296 296 296 296 295 295 296 297 297 297 297 297 298 299 301 303 308 313 317 320 321 323 325 326 327 329 331 332 332 333 332 332 333 331 331 331 331 331 330 330 330 331 332 332 331 330 329 327 326 326 326 324 323 323 323 323 324 325 325 325 325 324 324 323 322 322 322 322
304 307 306 304 305 306 305 303 302 303 304 302 305 306 303 302 300 299 299 298 297 296 296 295 295 295 295 295 295 295 295 295 295 294 294 294 295 296 296 295 296 296 297 298 300 305 310 315 319 321 323 324 325 325 327 329 331 331 331 331 330 330 330 329 329 329 329 328 329 329 329 329 329 330 329 329 328 327 326 324 322 322 322 322 323 325 325 325 325 325 325 324 323 323 323 323 323
304 306 306 304 305 306 306 305 302 302 302 302 305 305 303 302 300 299 299 298 298 297 296 296 296 295 295 295 294 294 294 294 294 294 294 294 294 294 295 295 294 295 296 296 298 301 304 310 316 318 319 321 323 324 325 326 328 329 328 327 326 325 325 324 324 325 325 325 326 326 327 328 328 329 329 329 328 328 327 324 323 324 324 322 322 324 325 326 325 325 325 324 324 323 323 323 323
305 305 304 304 305 305 306 306 304 302 302 302 302 302 302 302 300 299 298 298 298 297 297 296 296 295 295 294 293 293 293 293 293 293 293 293 293 293 293 294 293 294 295 295 296 297 299 304 308 313 316 319 321 321 321 322 323 324 323 322 322 321 320 320 320 321 320 320 321 322 323 325 326 326 327 328 327 327 327 325 324 325 326 324 323 324 325 325 325 325 325 325 324 323 323 323 323
305 305 305 305 304 305 305 305 305 303 302 302 302 302 301 301 300 299 297 298 298 297 296 296 295 295 295 294 293 293 293 292 292 292 292 292 292 292 292 292 293 292 293 294 295 295 297 299 302 307 312 316 318 319 318 319 320 320 318 319 319 317 316 316 316 316 315 316 316 317 320 321 323 323 323 325 325 326 326 325 325 325 326 325 325 324 325 325 325 325 325 324 324 323 323 323 323
305 305 305 305 305 305 305 304 304 304 303 302 302 301 301 301 300 299 298 297 298 297 296 295 295 295 294 294 293 293 292 292 292 292 291 291 291 291 291 291 292 292 292 293 293 294 295 297 299 302 305 310 315 318 317 318 317 315 314 315 313 310 310 310 310 309 309 311 311 313 315 317 319 320 320 322 322 323 324 324 324 324 325 325 325 325 325 325 325 325 325 324 323 323 324 324 323
305 305 305 306 305 305 305 304 305 305 303 302 301 301 301 301 300 300 299 297 297 297 297 296 294 294 294 294 293 293 292 292 292 291 290 291 290 290 290 290 291 291 291 291 292 292 293 294 296 297 299 302 308 311 311 311 310 310 309 308 305 304 304 305 305 304 304 306 307 309 311 312 314 316 317 317 319 319 321 322 323 323 323 324 324 324 324 324 324 324 324 324 324 323 323 324 324
305 306 307 307 306 306 305 306 307 305 303 301 300 301 301 301 301 300 299 298 298 297 297 296 295 294 294 293 293 292 292 293 292 291 290 290 290 290 290 290 290 290 290 290 291 291 292 292 293 294 295 298 301 303 304 305 304 305 305 303 303 302 302 301 301 300 300 302 305 306 306 308 310 311 312 313 314 316 317 318 319 320 321 322 322 323 323 323 323 323 323 323 323 324 324 324 324
305 307 308 307 305 306 305 306 308 306 303 302 300 301 301 300 300 300 300 299 299 298 297 296 295 294 293 293 293 292 292 292 291 290 290 289 289 289 289 289 289 289 289 290 290 290 291 291 292 292 293 295 297 298 300 302 301 302 303 302 302 302 300 299 299 298 298 299 302 303 302 303 306 307 308 308 309 310 312 314 315 315 317 319 319 320 320 320 321 321 322 322 323 323 323 324 324
303 304 306 306 305 306 307 307 306 305 304 303 302 301 300 300 300 300 300 300 299 298 297 296 296 295 294 293 293 292 291 291 290 290 290 289 289 288 288 288 288 288 289 289 289 290 290 290 291 291 292 292 293 295 297 299 300 300 300 301 301 301 299 300 300 299 297 297 298 300 299 299 301 303 304 305 304 305 306 308 311 311 311 314 316 316 315 314 314 315 317 319 320 321 323 323 324
303 301 302 304 305 304 306 308 306 305 304 303 304 304 302 301 301 300 300 300 299 299 297 296 295 295 294 293 292 292 291 290 290 290 289 289 288 288 288 287 288 287 288 288 288 289 289 289 290 290 291 291 292 292 293 295 297 298 298 299 300 299 298 297 299 297 294 294 294 296 296 296 298 299 300 301 301 301 302 301 304 307 307 308 311 311 310 309 309 310 311 313 315 317 320 322 323
304 301 299 301 303 303 307 309 307 306 306 303 305 307 305 302 301 301 300 300 299 299 297 296 295 294 294 293 292 291 291 290 290 289 289 289 288 288 287 287 287 287 287 287 288 288 288 289 289 289 290 290 291 291 291 292 293 294 295 295 295 295 294 294 294 293 292 291 291 291 292 293 294 296 297 297 297 298 300 299 298 302 304 303 304 305 306 306 305 305 305 307 308 311 313 316 320
306 300 298 299 301 304 308 310 307 306 306 303 304 307 306 304 302 301 301 300 300 299 297 296 295 294 294 293 292 291 290 290 290 289 289 289 288 288 287 287 287 286 286 287 287 287 287 288 288 288 289 289 289 290 290 291 291 292 293 293 292 292 292 292 292 291 290 289 289 289 289 289 290 291 292 293 293 294 296 297 296 296 298 298 298 300 301 301 301 301 301 302 303 305 307 309 313
304 298 299 303 304 308 310 309 307 305 305 304 304 304 305 305 302 302 301 301 301 300 299 297 296 295 294 293 292 291 290 290 290 289 289 288 288 287 287 287 287 286 286 286 286 286 286 287 287 287 288 288 288 289 289 290 290 290 291 291 291 291 291 291 291 290 289 288 288 288 288 288 288 288 288 289 290 290 291 293 293 293 294 294 294 295 295 296 297 298 300 300 300 301 303 305 307
299 297 301 304 304 306 307 308 307 303 303 307 304 302 305 307 303 301 301 301 302 302 300 299 297 296 294 294 293 292 291 290 290 289 289 288 288 287 287 287 287 286 286 286 286 286 286 286 286 287 287 287 288 288 288 288 289 289 289 289 290 290 290 290 290 289 289 289 288 289 288 288 287 287 287 287 287 287 288 289 289 290 290 290 290 291 292 293 294 295 296 298 298 299 300 302 303
296 298 302 302 302 304 304 305 306 303 305 308 304 301 305 308 306 303 302 303 303 302 301 299 298 297 295 294 294 293 292 291 290 289 289 288 287 287 287 287 287 286 286 286 285 285 286 286 286 286 286 286 287 287 287 287 288 288 288 288 288 288 288 288 289 289 288 288 288 288 288 287 287 287 286 286 286 286 287 287 287 287 287 287 288 289 289 290 291 291 293 294 295 297 297 297 297
296 300 304 305 305 306 305 303 301 305 312 308 302 301 302 306 308 306 305 305 303 302 301 300 299 298 297 297 296 294 293 293 291 289 288 288 287 287 287 287 287 286 286 285 285 285 285 285 285 285 286 286 286 286 286 287 287 287 287 287 287 287 287 288 288 288 288 287 287 287 287 286 286 286 286 286 286 286 286 286 286 286 286 286 286 287 288 288 289 289 290 291 292 293 292 292 293
299 304 307 306 305 305 305 305 304 310 315 306 301 300 299 303 307 305 305 304 301 301 301 300 300 299 299 299 298 297 296 295 293 290 288 288 287 287 287 287 287 286 286 286 285 285 285 285 285 285 285 285 285 285 285 286 286 286 286 286 287 286 286 287 287 287 287 287 287 287 287 286 286 286 285 285 285 285 285 285 285 285 285 286 286 286 286 287 287 287 289 290 289 288 289 290 291
301 310 309 305 306 306 308 310 308 310 310 302 300 301 299 303 306 304 304 303 302 301 299 300 300 299 299 299 299 299 298 298 295 291 289 288 287 287 287 287 287 286 286 286 286 285 285 285 285 285 285 285 285 285 285 285 285 285 285 285 286 285 286 286 286 286 287 287 287 286 286 286 286 285 285 285 285 285 285 285 285 285 285 285 285 285 285 286 286 286 288 288 287 287 287 288 289
300 305 305 304 306 307 309 310 303 303 306 300 298 301 303 305 304 303 303 302 301 300 299 301 301 300 300 300 299 299 299 299 296 290 288 288 287 287 287 287 287 287 286 286 286 286 285 285 285 285 285 285 285 285 285 284 284 284 284 284 285 285 285 285 285 285 286 286 286 286 286 286 285 285 285 285 284 284 284 284 284 284 284 284 284 285 285 285 285 286 286 287 286 286 286 287 287
297 297 299 303 305 303 305 307 302 300 303 300 297 301 309 310 303 301 301 300 299 299 299 301 301 300 301 300 299 299 298 298 296 290 288 288 288 287 287 287 287 287 286 286 286 286 286 285 285 285 285 285 285 285 284 284 284 284 284 284 284 284 284 284 284 284 284 284 285 285 285 285 285 284 284 284 284 284 284 284 284 284 284 284 284 284 284 284 285 285 285 285 285 285 285 286 286
295 295 299 302 302 301 300 299 299 297 299 303 302 301 305 305 302 300 300 299 297 298 299 299 300 300 299 299 298 298 298 297 298 294 289 288 288 287 287 287 287 287 286 287 286 286 286 285 285 285 285 285 285 285 285 284 284 284 284 284 284 284 284 284 284 284 284 284 284 284 284 284 284 284 284 284 284 283 283 284 284 283 284 284 284 284 284 284 284 285 285 285 285 285 285 285 285
296 297 299 297 296 301 300 295 293 293 297 303 301 299 302 300 299 300 299 300 299 297 298 298 299 299 298 298 298 298 298 298 298 294 289 288 288 287 287 287 287 287 286 287 286 286 286 285 285 285 285 285 285 285 285 284 284 284 284 284 284 284 284 283 283 283 283 283 283 283 283 283 283 283 283 283 283 283 283 283 283 283 283 283 283 284 283 284 284 284 284 285 284 284 284 285 285
297 299 296 293 294 298 298 296 298 298 298 300 298 297 300 300 300 302 298 299 300 297 297 297 297 298 298 298 298 298 298 298 296 291 288 289 289 287 288 287 287 287 286 287 286 286 286 286 285 285 285 285 285 285 285 284 284 284 284 284 284 284 283 283 283 283 283 283 283 283 283 283 283 283 283 283 283 283 283 283 283 283 283 283 283 283 283 283 283 284 284 284 284 284 284 284 284
294 295 293 293 296 298 298 297 299 300 297 299 300 297 296 298 302 307 303 300 300 298 297 296 296 297 296 297 297 297 298 297 297 293 289 289 289 288 288 287 287 287 287 287 287 286 286 286 285 285 285 285 285 284 284 284 284 284 284 284 284 284 283 283 283 283 283 283 283 283 283 283 283 283 283 283 283 283 283 283 283 283 283 283 283 283 283 283 283 283 284 284 284 283 284 284 284
297 297 295 296 297 296 297 295 294 297 297 298 301 302 303 301 301 307 308 303 299 298 297 297 296 295 295 295 295 296 298 298 299 296 290 288 290 289 288 288 287 287 287 287 287 287 286 286 285 285 285 285 285 284 284 284 284 284 284 284 284 284 283 283 283 283 283 283 283 283 283 283 283 283 283 283 283 283 283 283 283 283 283 283 283 283 283 283 283 283 283 283 283 283 283 283 284
299 299 297 298 295 291 293 293 290 295 299 297 296 302 308 302 298 304 309 306 301 298 297 297 296 295 295 294 295 296 297 298 298 295 290 289 290 289 289 288 288 287 287 287 287 287 287 287 286 286 286 286 285 285 285 285 284 284 284 284 284 284 283 283 283 283 283 283 283 283 283 283 283 283 283 283 283 283 283 283 282 282 282 282 282 282 282 282 282 282 283 283 283 283 283 283 283
297 296 295 296 293 292 296 296 291 291 293 295 295 298 304 299 296 303 307 306 303 298 296 297 296 296 296 295 294 295 296 299 298 293 290 289 290 290 290 289 288 288 287 287 287 287 287 287 287 287 287 287 286 286 286 286 285 285 284 284 284 284 284 284 284 283 283 283 283 283 283 283 283 283 283 283 283 283 282 282 282 282 282 282 282 282 282 282 282 282 282 282 282 282 282 283 283
Wind_Speed
12 10 10 10 11 9 5 4 1 2 2 1 2 1 2 3 2 4 7 6 3 3 2 4 4 1 1 1 2 4 3 3 4 4 3 5 1 17 23 8 9 26 32 30 29 27 25 24 23 22 20 20 20 20 21 20 19 17 16 14 13 15 17 16 13 12 12 13 12 12 13 14 14 14 13 12 13 13 13 13 14 14 14 13 13 12 10 10 10 10 11 12 13 13 12 11 10
12 9 8 7 8 6 1 3 2 3 3 1 3 3 3 4 3 5 7 6 3 6 7 5 5 2 2 3 1 2 1 1 2 3 2 0 7 17 20 8 14 29 31 30 29 27 25 24 24 23 20 19 20 20 20 20 18 16 15 13 12 13 16 17 14 13 13 12 12 12 13 15 15 15 13 13 15 14 13 13 13 13 13 13 13 13 11 10 10 10 11 12 13 12 11 11 11
12 9 7 4 4 5 1 3 2 1 2 2 4 3 2 4 4 6 7 6 8 9 8 5 2 2 2 4 2 2 1 1 1 0 2 5 8 15 18 10 19 30 30 31 29 28 25 24 24 23 20 19 19 19 19 19 17 16 15 14 14 14 15 17 15 14 14 13 13 13 14 15 15 15 14 15 16 15 13 14 14 14 13 13 14 14 13 12 11 12 12 13 13 12 11 11 11
10 8 7 3 1 4 3 3 2 4 2 3 2 3 2 2 6 9 8 8 9 6 6 4 3 1 2 3 1 1 1 2 2 2 1 7 8 15 18 13 25 29 29 30 29 28 26 24 24 23 21 18 18 19 19 17 16 16 16 15 15 14 14 16 15 14 15 14 14 14 14 15 15 15 15 16 17 15 15 15 15 16 14 13 14 13 13 13 12 13 13 13 12 11 10 10 10
6 4 6 4 2 1 2 2 2 4 3 4 1 2 3 4 8 9 10 9 5 5 5 4 3 3 2 1 1 1 2 2 1 2 3 8 10 15 16 18 28 29 29 30 29 29 26 25 24 24 22 19 18 19 18 17 16 16 16 16 16 15 15 16 16 15 15 15 15 15 14 15 15 15 15 16 16 15 15 14 13 15 14 13 13 12 13 13 13 13 13 13 11 10 10 9 9
4 2 6 5 3 1 2 2 2 2 4 3 2 2 4 6 8 9 12 8 3 3 2 4 3 2 2 2 1 2 1 2 0 2 4 8 12 15 16 22 29 28 29 28 29 29 27 26 24 23 22 21 19 19 19 17 16 16 16 17 17 16 15 16 17 16 15 15 15 15 14 14 15 14 15 16 16 15 14 14 14 14 14 14 13 12 12 12 12 13 13 11 10 9 9 9 8
4 1 4 4 2 2 3 3 3 2 2 1 2 2 5 8 8 7 10 9 7 7 4 5 4 1 2 3 1 1 3 3 2 2 4 8 14 16 17 24 28 27 28 27 28 29 27 26 25 23 21 20 20 19 19 18 18 18 17 17 17 16 16 16 17 17 16 15 15 14 13 13 13 13 14 16 16 14 14 15 15 15 14 14 14 13 12 11 10 11 11 10 9 9 9 8 8
5 1 1 4 1 2 3 2 2 2 1 2 2 4 6 9 8 5 8 6 5 8 6 8 6 1 4 3 1 0 9 9 4 2 5 10 17 18 18 25 27 27 27 28 28 28 27 25 24 23 21 20 19 19 19 19 19 18 18 17 17 16 17 16 17 18 17 16 15 14 13 13 13 12 13 15 15 15 15 16 16 15 14 13 12 13 12 11 9 8 8 8 9 9 9 9 8
5 3 1 3 2 1 2 1 2 2 1 3 5 7 8 10 8 5 8 6 4 6 8 11 6 2 6 4 3 2 11 13 4 4 8 12 19 19 19 24 26 27 27 28 28 28 28 25 24 22 21 20 19 19 19 19 19 18 18 18 17 16 17 16 17 18 16 16 15 14 14 13 13 12 13 14 15 15 15 16 16 14 13 11 10 11 10 9 8 6 5 5 7 9 10 10 10
4 3 2 2 3 2 1 1 2 2 1 2 5 8 9 11 8 5 9 7 7 6 8 10 4 4 8 4 3 4 8 9 6 8 11 14 20 20 19 23 24 25 27 28 28 28 27 25 24 22 21 20 19 19 19 19 19 19 18 18 17 16 16 16 18 18 16 16 15 15 14 13 13 12 13 14 15 15 15 16 16 14 12 10 9 8 7 5 4 3 4 5 6 8 10 11 11
3 3 2 3 3 3 3 1 2 3 2 3 5 8 7 11 8 5 9 7 7 7 8 9 7 7 9 3 2 5 10 11 6 6 10 15 19 19 18 21 22 23 25 27 28 28 28 26 24 23 21 20 20 19 19 19 19 19 18 18 17 16 16 19 20 17 16 16 14 15 14 13 13 13 13 14 15 15 15 15 14 12 11 9 8 7 5 3 3 4 4 5 6 8 8 9 10
3 3 3 4 2 3 2 2 2 4 3 6 8 9 8 8 6 6 10 8 8 9 7 9 6 5 6 3 3 6 18 21 8 3 8 13 16 17 17 19 20 21 23 25 28 28 27 26 24 23 22 20 19 20 19 20 19 19 19 18 17 16 17 20 20 17 16 15 14 15 14 14 14 14 13 14 15 14 14 14 12 10 9 8 6 6 4 3 2 3 4 5 7 7 7 8 9
3 1 4 3 2 3 2 2 1 3 4 5 6 9 9 6 6 6 7 7 7 9 8 9 8 4 3 3 4 7 17 25 10 4 7 10 13 15 15 16 18 19 21 23 26 27 27 25 24 23 22 19 18 20 21 20 20 20 19 19 18 17 18 21 19 17 16 14 14 15 14 14 14 14 14 15 15 14 14 13 12 10 9 8 6 5 4 3 2 2 2 5 7 7 7 8 9
2 2 4 3 1 3 2 2 3 3 2 3 4 8 9 2 4 6 4 8 7 6 9 12 7 2 4 5 6 7 16 25 9 5 7 9 10 12 13 14 16 17 19 21 24 25 25 25 24 23 21 20 18 20 22 21 21 21 20 20 19 18 20 21 18 17 16 14 14 15 15 14 14 14 15 15 14 14 13 12 12 10 9 7 5 5 4 3 2 2 2 4 6 7 7 9 10
2 2 4 4 2 3 2 2 2 1 1 4 6 8 8 2 4 6 4 6 5 3 7 11 9 1 5 7 6 9 20 22 4 6 7 9 8 9 10 12 14 14 17 19 21 23 23 24 23 22 21 20 19 20 22 21 21 21 21 22 20 19 20 20 18 17 16 14 14 16 16 15 15 14 14 13 13 12 11 10 9 8 7 5 5 4 3 3 3 3 3 5 6 7 7 8 9
2 3 4 4 3 3 3 3 2 1 2 5 6 8 8 5 4 4 4 2 4 6 4 7 10 4 4 5 7 16 22 17 1 7 8 10 7 8 8 9 11 12 15 16 18 20 21 22 22 22 21 19 18 20 21 21 21 21 21 22 21 20 20 18 18 16 15 14 14 16 18 17 16 14 13 13 12 11 10 9 7 7 6 5 4 4 4 4 4 3 3 6 6 6 7 7 8
3 4 5 4 3 3 2 4 3 2 5 6 8 8 7 8 6 4 5 2 3 8 3 4 6 3 4 5 13 21 20 17 11 4 5 7 8 8 7 7 9 9 13 14 15 18 20 21 21 21 20 19 18 18 19 20 20 21 21 22 21 20 18 16 16 15 14 13 13 16 18 18 18 16 14 13 12 11 10 8 7 6 5 4 4 5 6 6 5 3 4 6 6 7 7 6 7
5 4 4 3 2 2 2 2 3 1 4 6 8 8 5 7 9 7 5 5 7 8 6 9 9 6 10 14 22 27 21 19 19 15 12 8 4 6 6 7 8 9 12 14 15 16 18 19 20 20 19 18 18 17 17 18 19 20 21 21 20 19 17 15 15 14 14 14 14 16 19 19 18 17 15 14 14 12 10 8 6 6 5 5 6 7 7 7 6 4 4 6 8 8 8 6 6
4 4 4 3 1 2 1 1 3 2 4 7 7 6 4 5 7 6 6 8 10 13 12 14 15 15 19 23 29 30 25 21 20 17 13 12 9 2 3 7 9 10 11 15 17 17 18 18 19 19 19 18 18 17 17 17 18 19 20 20 19 18 17 16 15 15 14 14 15 17 20 20 19 18 16 15 14 12 9 8 7 7 7 7 7 8 8 8 8 6 5 6 8 9 8 7 7
3 4 5 2 2 3 2 3 5 3 5 6 6 6 4 5 5 5 8 8 8 12 11 14 15 17 18 20 25 27 24 23 23 18 12 10 9 6 5 1 6 10 11 13 15 18 20 20 20 19 19 19 18 18 17 17 18 19 19 20 19 18 18 17 16 16 15 15 16 17 20 21 20 19 17 16 15 12 10 9 9 8 8 7 8 9 10 10 9 8 7 7 8 10 10 9 8
3 4 4 2 4 3 4 6 7 5 3 4 5 5 5 7 4 7 11 8 8 11 12 13 14 15 16 15 19 21 21 24 24 22 18 13 11 10 13 14 7 4 8 12 14 18 20 20 21 20 21 20 19 20 20 19 18 19 20 20 20 19 18 18 18 17 17 17 17 17 19 21 22 21 19 17 16 14 12 12 11 10 10 9 9 9 10 11 10 10 9 9 10 11 12 11 10
4 4 2 2 2 3 6 8 6 5 2 2 4 5 5 6 4 9 14 10 7 12 14 15 13 12 12 11 15 16 19 22 23 26 25 20 17 18 19 22 19 15 9 3 6 11 16 19 20 20 21 21 21 21 21 21 20 20 21 21 20 20 19 19 19 19 18 18 18 18 20 22 23 22 21 19 18 16 15 14 13 12 11 10 9 10 11 12 12 12 11 11 12 12 12 12 12
5 3 3 2 2 3 6 7 7 5 4 6 5 3 5 6 6 8 14 11 10 13 14 13 10 11 13 14 14 15 17 19 22 25 26 25 26 26 24 24 24 22 21 18 11 6 5 9 15 19 21 21 22 22 22 22 22 21 22 22 21 21 21 20 20 20 19 19 19 20 21 23 24 23 22 20 20 19 18 16 15 13 12 11 10 10 11 12 12 13 13 13 13 14 14 13 13
7 3 4 3 2 5 6 5 6 6 7 6 4 6 11 9 4 9 16 15 15 17 17 13 13 17 18 17 15 15 16 18 21 22 24 24 24 26 27 25 23 24 24 22 18 13 13 12 7 11 17 22 22 22 23 23 22 22 22 23 23 22 22 22 21 20 20 20 19 20 22 22 24 24 23 22 21 20 19 17 15 14 13 12 12 11 11 12 13 13 14 15 15 15 15 15 15
7 3 3 3 3 6 6 6 8 7 6 5 10 15 15 9 1 11 19 17 17 18 17 16 16 18 18 16 15 15 17 19 21 22 24 23 25 33 36 30 25 26 26 22 21 17 13 12 9 9 10 20 24 22 23 24 23 22 22 23 23 23 24 23 23 22 21 21 20 21 22 23 23 24 24 23 22 21 19 18 17 16 15 14 13 13 12 12 13 13 14 15 16 16 16 16 16
3 1 2 3 5 7 8 9 10 7 3 7 16 17 15 12 4 9 18 18 17 16 13 13 14 17 16 13 15 17 18 20 21 21 22 23 30 36 37 34 30 28 27 23 23 22 16 12 9 11 10 9 19 21 22 24 24 24 23 23 23 23 23 24 23 23 22 21 22 22 22 23 23 24 24 23 22 21 20 19 19 18 16 15 15 14 13 13 13 13 14 14 15 16 18 18 18
2 1 1 5 5 7 12 11 12 6 2 7 11 13 15 13 7 8 15 17 16 14 12 13 14 16 15 12 14 17 19 20 20 20 23 26 29 30 29 33 32 28 29 28 26 25 20 15 13 12 12 7 7 17 21 23 24 25 24 23 23 23 23 23 24 23 23 23 23 23 24 24 24 23 23 23 22 22 21 21 21 20 18 17 16 15 14 14 14 14 14 14 14 15 17 19 20
2 1 1 7 6 10 16 13 14 7 2 6 4 10 17 14 12 11 13 15 14 12 12 13 14 13 13 13 13 16 19 20 20 22 24 24 23 23 25 27 29 29 30 30 28 27 23 19 17 14 13 10 3 9 17 21 22 23 25 24 23 23 23 23 24 25 24 24 25 25 26 26 25 25 24 24 23 23 23 23 22 21 20 18 17 16 16 16 16 16 16 15 15 16 17 18 20
3 3 1 9 8 12 16 12 13 7 5 9 1 7 17 14 14 13 12 12 12 11 12 13 13 12 12 12 11 14 18 21 23 24 22 20 20 21 23 24 28 30 30 30 30 28 27 25 22 18 14 10 6 1 7 15 21 23 23 25 25 25 26 26 27 28 27 26 26 27 28 28 27 27 26 25 25 24 24 23 22 21 20 18 17 17 17 18 18 19 18 17 17 18 19 19 19
3 5 3 6 6 9 12 12 14 8 7 14 2 4 9 10 12 12 11 11 11 12 12 12 11 10 11 10 10 12 17 21 23 24 22 21 20 21 22 25 30 32 31 33 33 31 29 28 26 23 18 13 10 6 2 5 13 20 22 24 25 25 25 26 28 29 27 26 27 28 28 28 28 27 27 26 25 25 24 23 22 22 21 18 18 18 19 20 20 20 19 19 19 19 20 20 20
3 5 3 4 4 5 9 11 15 9 7 13 5 6 5 8 12 11 10 10 10 11 11 11 10 10 10 10 10 11 15 20 20 23 25 23 21 21 24 26 30 32 34 34 34 33 31 28 28 27 23 18 14 11 6 3 1 8 15 20 24 26 26 27 29 28 25 23 24 26 26 26 26 27 27 27 26 24 24 24 23 23 21 19 18 19 20 21 22 22 21 21 21 20 21 21 21
4 3 3 4 3 4 7 8 15 9 7 11 8 5 2 7 11 12 10 9 9 10 10 10 10 10 10 10 10 10 13 18 21 24 25 25 24 23 26 28 30 32 32 33 34 36 35 31 28 27 26 22 19 17 13 8 7 6 2 5 8 11 15 16 16 19 19 19 21 24 26 25 25 25 26 27 27 25 24 24 24 22 21 20 20 20 21 22 22 23 22 22 22 22 21 22 22
4 4 2 3 3 4 5 5 12 9 6 11 10 5 2 6 10 11 11 9 8 9 10 11 10 10 10 10 10 9 11 15 20 24 25 25 24 24 25 27 31 34 34 34 34 36 37 34 31 28 27 26 22 20 19 16 14 15 16 15 17 17 15 16 14 8 6 5 9 14 18 20 23 24 24 26 27 26 26 25 24 22 21 21 21 22 22 22 22 23 23 22 23 23 23 23 23
4 4 2 1 2 2 3 4 8 10 8 9 10 8 7 7 9 11 12 11 8 9 11 11 10 9 9 9 10 11 11 11 16 22 24 23 24 25 24 25 30 34 37 38 36 35 36 36 34 31 28 26 25 23 23 24 22 22 23 23 24 26 27 27 26 24 22 19 14 9 5 7 13 17 19 23 25 25 27 26 25 24 23 22 22 23 23 22 22 23 24 23 23 24 24 25 25
1 2 1 1 2 2 3 3 3 7 9 8 8 9 8 9 10 10 12 11 9 10 11 10 11 11 10 10 10 11 11 12 15 20 22 23 24 26 25 26 29 32 34 38 40 38 37 36 35 33 30 28 26 25 25 26 26 26 27 28 29 32 32 31 30 30 30 28 25 22 15 9 4 5 8 13 18 21 25 26 25 24 24 23 24 25 25 24 22 23 24 24 24 24 25 25 26
3 1 1 1 2 2 3 3 2 2 7 8 7 7 7 9 10 10 11 11 10 10 10 10 10 10 10 10 10 10 11 12 15 19 21 23 25 25 26 26 27 30 32 35 38 39 38 37 36 35 33 30 28 26 26 27 28 30 31 32 32 34 35 35 35 35 35 33 32 30 26 21 15 10 8 3 5 9 14 18 20 22 23 23 24 25 27 26 24 24 25 24 24 24 25 26 26
3 2 2 1 1 2 2 3 4 1 4 5 5 6 6 7 9 9 9 10 11 12 11 10 10 10 10 10 11 11 11 11 15 18 20 23 25 25 26 27 28 31 33 34 36 37 36 36 37 36 34 33 31 30 29 30 30 30 33 34 33 34 35 36 37 37 37 36 36 35 33 30 25 21 18 14 10 8 5 6 8 12 15 18 21 23 24 25 25 25 25 25 24 24 25 25 24
3 3 2 1 1 2 2 2 4 2 3 3 2 5 6 6 7 7 8 10 11 12 11 10 10 10 9 10 11 11 9 10 15 19 20 23 26 26 26 28 30 31 32 34 34 33 33 34 36 35 34 35 34 32 30 31 30 29 30 30 32 35 36 37 37 35 36 37 38 38 37 36 32 30 27 24 21 18 16 13 11 11 9 8 11 14 18 21 24 26 26 25 25 24 25 24 22
4 2 2 2 2 1 1 2 3 3 2 1 2 5 5 4 5 6 7 7 7 9 10 9 9 9 9 9 10 10 9 10 13 16 20 22 25 27 27 28 29 29 30 31 31 31 33 33 33 33 34 35 35 34 31 29 28 28 29 30 32 35 36 36 36 35 35 37 39 38 38 38 36 35 33 32 30 27 25 22 20 19 17 13 12 12 13 15 17 20 23 25 26 24 23 24 24
4 4 2 1 2 1 1 1 2 3 2 1 1 3 3 3 3 5 5 5 4 7 8 8 7 7 8 8 8 9 10 10 11 13 17 20 23 26 27 27 27 28 29 31 31 30 31 32 31 31 32 33 34 34 33 31 28 27 29 30 30 32 33 34 36 37 37 38 39 39 39 38 37 37 36 35 35 33 32 29 26 25 25 22 20 20 21 22 22 20 19 18 20 22 24 25 25
2 2 2 2 3 2 3 1 2 3 2 1 2 1 1 2 3 3 2 4 3 4 6 7 7 7 6 7 8 9 9 10 10 11 14 18 21 23 25 26 27 28 28 29 29 29 29 30 29 29 30 31 32 33 33 34 33 31 32 33 33 33 34 36 38 37 37 37 38 39 39 38 38 38 37 37 36 35 35 34 31 29 30 29 27 26 27 27 28 28 27 25 21 18 20 24 25
3 1 2 4 4 4 3 3 3 3 2 2 2 1 3 3 2 3 2 1 2 3 4 6 7 7 6 7 8 8 8 8 9 10 12 16 18 21 24 26 27 27 27 26 27 27 28 28 28 29 30 30 31 30 32 35 36 36 38 38 37 36 35 35 33 32 32 33 34 36 37 38 39 38 38 37 37 36 35 36 36 34 33 33 32 30 30 30 31 32 32 30 29 28 25 23 22
2 2 3 4 2 1 1 3 1 1 1 2 3 1 3 3 2 2 2 3 0 3 2 2 3 5 6 6 6 7 7 7 8 10 13 15 17 20 22 25 26 26 25 25 25 27 27 28 28 29 29 30 30 29 29 32 34 34 35 34 34 34 31 28 26 28 30 31 32 35 37 39 40 40 39 38 38 38 36 35 37 36 35 35 34 34 33 33 32 33 34 33 32 32 32 30 27
1 3 2 1 3 2 2 3 2 0 2 3 4 2 1 2 2 3 2 3 2 0 1 2 1 3 4 4 5 6 6 6 5 7 11 14 16 18 19 22 24 24 25 26 26 26 26 27 28 29 30 30 30 30 30 30 30 30 29 28 28 28 27 24 24 26 28 30 32 33 35 37 38 39 40 39 39 39 38 37 37 37 37 36 36 35 35 34 33 33 34 34 35 35 34 30 30
3 3 2 2 3 2 3 4 2 1 2 3 5 3 1 3 3 2 0 2 4 3 3 3 2 1 2 3 4 5 5 5 6 6 9 12 15 17 18 20 22 24 25 26 26 26 26 27 28 29 30 30 30 30 30 30 29 29 29 28 27 25 23 22 22 24 25 28 30 31 31 33 34 36 38 38 38 38 39 39 38 38 37 37 37 36 35 35 34 35 35 35 36 34 33 31 29
4 2 2 2 3 4 3 4 2 2 3 1 5 3 2 3 4 1 1 2 4 4 4 4 3 2 1 1 2 4 3 4 6 7 9 12 13 15 17 19 21 24 24 25 26 27 27 27 28 29 29 29 29 29 30 29 29 29 29 28 27 25 23 22 23 24 25 26 29 29 30 31 32 33 35 35 35 35 36 38 37 37 37 37 38 37 37 36 34 34 34 34 34 32 31 31 30
2 1 3 3 3 4 3 2 2 3 3 3 4 1 2 1 4 3 2 3 4 3 3 3 4 3 3 3 2 2 3 3 4 7 9 11 12 14 16 18 20 21 23 25 26 26 27 27 28 28 28 28 29 29 29 29 29 29 28 28 27 25 24 24 24 25 25 26 28 28 28 30 30 32 33 34 34 33 34 35 33 34 35 36 37 37 36 35 34 34 34 33 32 32 32 32 32
2 2 3 2 4 4 3 4 4 4 2 4 3 2 1 1 4 4 5 5 5 4 4 4 5 4 4 3 3 3 2 3 3 5 7 8 9 11 14 16 17 18 21 23 24 24 25 25 26 27 27 27 28 28 29 29 29 29 28 27 26 26 25 25 25 25 25 26 26 26 26 27 29 31 32 33 33 33 33 33 33 33 34 35 35 34 34 34 34 35 34 33 33 34 34 34 34
5 3 5 3 3 4 3 4 3 0 4 3 1 3 0 3 5 5 7 8 7 6 6 6 6 5 4 4 4 3 2 2 3 3 5 5 6 7 8 10 12 15 17 19 21 21 22 22 23 24 25 25 25 26 27 28 29 29 28 27 27 26 26 26 25 25 24 24 24 25 25 26 27 29 30 31 31 32 33 33 33 34 35 35 34 34 34 34 35 34 33 32 33 34 34 34 33
5 2 3 1 1 4 3 3 2 3 5 4 3 3 1 3 4 5 8 9 8 7 6 6 6 6 5 4 4 3 3 3 3 3 4 4 3 2 4 6 8 10 12 14 17 18 19 20 20 21 22 22 23 24 25 26 27 27 27 27 27 26 26 26 26 25 24 24 24 24 25 25 26 28 28 28 29 30 31 32 33 33 34 35 35 35 35 35 34 33 32 32 32 33 32 32 32
3 2 3 1 3 2 2 3 1 4 5 5 4 1 2 2 2 4 6 5 5 5 5 5 4 5 4 3 3 4 4 4 4 4 6 6 3 1 1 3 6 8 9 10 13 15 16 17 18 18 19 19 20 21 22 23 24 24 24 25 25 25 25 25 25 25 25 25 24 25 25 25 25 25 26 26 27 29 30 30 31 33 33 34 35 35 35 34 34 32 32 32 33 33 33 32 31
2 1 2 1 3 3 1 3 4 2 3 4 3 2 4 3 3 4 2 2 3 4 4 4 4 5 3 3 4 5 5 5 4 4 7 8 7 4 3 3 4 6 7 8 9 11 13 14 15 16 16 16 17 18 19 20 20 21 21 22 22 23 23 24 24 24 24 24 24 24 24 24 24 25 25 26 27 28 29 29 30 31 32 33 33 34 34 33 32 32 31 32 32 33 33 33 32
1 2 1 1 2 4 3 1 1 2 0 3 2 3 4 3 4 3 1 1 4 4 5 5 6 6 4 5 6 5 5 5 5 5 8 11 10 8 7 5 5 5 5 6 7 8 9 10 11 12 13 14 14 15 15 16 17 17 18 19 20 20 21 21 22 22 22 23 23 23 23 23 24 24 25 26 27 28 28 29 29 30 31 31 32 32 33 33 32 32 31 30 31 32 32 31 31
2 1 2 1 2 3 3 0 3 4 1 4 2 3 5 2 2 3 1 4 7 6 6 6 6 6 6 7 7 6 6 6 6 7 10 13 12 11 9 8 7 6 5 5 5 6 7 8 9 9 10 11 12 12 12 13 13 14 15 16 17 17 18 19 19 19 20 20 21 22 22 23 23 23 24 25 26 27 28 28 29 30 30 31 32 32 32 32 31 31 30 29 30 31 31 30 30
2 1 1 2 2 2 2 2 2 3 2 5 4 4 4 3 3 3 4 9 10 8 7 7 8 8 8 8 8 8 7 5 6 6 9 13 15 14 12 10 9 7 6 5 4 4 5 6 6 7 8 9 9 9 10 10 11 11 12 12 13 14 15 15 16 16 17 18 19 20 21 21 22 22 23 23 24 25 26 27 27 28 29 30 31 31 31 31 31 31 30 30 30 31 31 30 30
3 2 2 2 3 2 1 2 1 0 1 3 5 5 3 5 5 5 8 10 11 9 8 8 10 10 9 8 8 8 7 6 6 6 9 14 18 17 15 12 10 8 7 5 4 4 4 4 5 5 6 6 7 7 8 9 9 9 10 10 10 11 12 13 13 14 15 15 16 17 18 19 20 21 22 23 24 25 26 26 27 28 28 29 30 31 31 31 31 30 30 29 30 31 30 30 30
3 3 3 3 2 1 0 1 2 2 1 0 2 5 6 5 4 6 8 9 9 9 9 9 10 10 9 9 8 7 7 7 7 7 10 16 19 19 17 14 12 10 9 8 6 4 3 3 3 3 3 4 4 5 6 7 7 8 8 8 8 9 9 10 10 11 12 13 14 14 15 16 18 19 21 23 24 25 26 27 28 29 29 29 30 31 31 31 31 30 30 30 30 31 31 30 30
1 0 0 0 1 2 2 3 3 1 2 3 2 4 8 5 3 6 7 6 7 8 8 9 9 10 10 9 9 9 7 7 7 8 12 16 19 21 20 17 15 14 13 11 9 7 5 3 2 1 0 1 2 3 4 5 6 6 6 6 6 7 7 8 9 10 12 13 14 14 15 17 18 19 20 22 23 23 24 24 25 26 27 28 28 29 29 30 30 30 29 29 30 30 31 31 31
Wind_Direction
330 327 330 332 338 338 350 56 63 332 80 42 294 233 272 253 300 342 328 330 1 301 297 317 292 284 123 161 210 191 159 162 165 140 205 276 122 165 171 170 172 168 167 167 166 168 171 170 165 167 175 176 172 170 170 170 167 166 165 169 174 177 166 155 158 158 158 158 157 159 155 153 152 148 148 151 149 146 144 143 143 141 138 137 138 135 137 135 129 124 120 126 131 130 125 119 116
333 331 337 334 349 2 290 71 95 330 45 327 290 186 274 319 359 350 323 321 305 290 302 289 260 260 100 116 133 68 23 281 177 165 288 188 130 165 175 175 171 167 167 167 166 169 171 170 165 167 174 174 174 172 170 169 167 165 159 161 167 171 168 159 160 161 158 160 160 156 155 154 151 148 149 150 144 140 140 141 145 144 142 144 141 139 140 137 135 131 130 137 137 134 130 126 123
336 334 348 344 353 29 69 42 106 49 78 244 281 235 309 11 357 323 297 281 275 285 300 300 258 223 41 33 39 55 334 310 155 172 356 146 144 170 179 178 170 168 167 167 168 169 170 169 167 168 172 171 172 173 172 170 165 163 159 160 162 165 168 161 163 163 160 165 160 157 158 155 153 153 155 151 143 140 144 149 151 149 148 148 145 143 139 135 140 139 138 141 137 136 134 128 126
338 340 354 19 49 33 62 41 147 123 137 215 296 291 354 10 323 310 291 286 286 305 325 343 14 262 55 28 351 116 284 307 166 156 150 180 176 172 176 172 169 170 168 169 170 170 170 170 170 170 172 170 172 177 176 173 169 165 163 165 167 167 169 164 167 165 165 172 163 162 164 161 161 161 162 156 150 150 155 160 158 153 148 147 147 146 144 140 140 141 141 140 139 138 134 126 125
337 353 11 45 100 35 101 74 111 122 190 184 79 333 16 319 314 316 309 303 296 339 345 22 358 312 39 122 133 135 258 332 177 191 197 189 182 169 169 168 168 170 170 172 172 171 171 171 173 173 173 170 173 176 174 174 172 169 168 171 171 171 172 167 169 167 171 179 170 168 170 169 170 170 170 165 163 161 163 165 160 152 145 146 150 148 146 142 137 140 143 141 142 144 137 126 127
338 25 34 52 91 89 123 113 157 167 227 169 101 345 13 333 320 314 317 319 328 7 35 46 353 288 332 281 135 160 234 357 235 248 220 185 178 170 165 167 169 171 172 174 174 172 171 173 176 177 175 173 174 173 173 174 175 174 171 174 174 175 175 169 169 168 175 183 176 174 175 173 173 175 174 173 173 169 168 166 155 145 141 143 145 144 142 140 139 142 147 147 149 154 152 138 137
360 15 32 64 59 26 118 143 184 200 273 96 81 348 356 341 326 321 343 349 347 1 56 33 345 207 280 295 26 147 33 350 258 288 236 186 174 170 167 169 170 171 174 175 176 174 172 175 178 179 177 175 175 176 178 176 178 176 173 177 175 176 174 172 173 169 178 184 180 180 178 175 175 178 176 176 178 174 170 163 153 144 141 143 142 142 141 141 141 145 150 153 157 165 168 160 151
23 53 28 98 81 9 105 136 211 195 317 11 34 356 355 342 330 344 0 358 334 332 348 347 343 337 286 338 339 264 30 360 311 277 211 181 172 171 170 172 171 172 176 178 177 176 175 177 180 182 177 177 177 178 180 178 180 178 177 179 176 178 174 178 177 170 180 182 180 183 179 177 177 179 176 175 178 175 170 162 155 148 144 144 144 146 147 147 144 147 157 162 168 175 181 181 173
31 44 76 103 122 44 69 110 256 227 345 17 25 357 349 344 337 4 359 346 335 318 323 328 327 335 313 334 296 284 19 8 25 148 174 173 173 171 173 175 175 174 176 179 178 177 177 179 182 184 180 180 179 179 181 180 183 179 181 181 178 182 176 181 179 172 182 179 178 184 180 178 175 176 174 172 175 173 167 164 158 153 148 143 144 148 148 148 147 149 165 182 184 186 192 194 192
25 30 135 89 105 155 313 337 263 255 343 18 26 359 348 344 333 10 9 339 333 329 317 326 342 2 330 309 312 351 9 9 64 126 160 169 173 172 175 178 179 177 177 180 179 179 179 180 183 185 183 184 182 182 183 183 184 181 183 181 179 182 179 182 178 177 182 178 180 182 178 175 172 171 171 169 170 168 164 162 158 153 150 150 151 152 153 157 168 185 199 207 200 196 197 199 201
36 358 98 85 95 170 232 241 279 269 342 356 353 357 352 338 324 351 5 340 329 333 327 352 22 353 326 295 333 15 26 17 41 113 157 167 171 174 176 179 182 180 179 181 180 180 181 181 185 186 186 187 185 184 184 185 185 184 185 182 180 182 185 183 177 182 183 179 180 178 175 171 169 166 168 169 164 163 161 157 155 153 158 166 162 160 181 203 220 229 220 212 205 201 200 201 203
86 350 58 95 131 175 185 141 281 285 360 20 350 342 342 335 348 350 347 338 325 337 348 0 351 315 325 328 324 7 22 10 0 125 162 169 170 175 177 179 182 183 181 182 181 181 182 183 186 188 189 190 188 187 186 186 187 186 186 182 181 183 184 180 178 183 183 181 181 177 174 169 168 164 163 163 159 159 156 153 155 160 169 176 170 172 203 233 243 243 225 213 209 210 207 209 209
109 114 87 100 150 135 110 123 287 323 15 19 333 323 332 345 19 341 323 326 327 357 348 330 314 288 360 318 309 353 4 354 344 161 167 169 172 177 179 181 182 185 184 183 183 182 184 185 187 189 189 189 190 189 186 188 190 189 188 183 183 187 184 180 181 185 185 185 182 177 174 171 170 165 164 162 160 160 157 158 164 171 175 177 185 199 225 253 281 295 243 211 208 212 211 218 221
112 145 103 112 76 87 66 16 348 23 53 336 319 325 333 348 1 323 339 346 340 13 316 309 313 271 12 338 333 354 340 340 340 165 175 174 177 179 180 183 183 186 185 185 185 184 185 186 189 190 188 190 192 190 189 192 193 192 190 186 187 189 186 184 186 188 190 189 183 180 176 176 175 170 168 165 163 163 164 170 175 178 180 185 203 214 231 260 298 315 266 207 199 210 219 221 224
97 135 86 99 42 41 49 29 348 68 153 336 343 333 326 271 330 335 23 355 305 337 308 326 350 5 17 354 345 330 326 333 323 169 175 177 175 178 180 180 183 185 184 186 186 185 187 188 189 189 189 191 194 192 194 196 195 196 193 189 190 192 190 191 192 192 196 191 186 185 180 181 182 178 175 172 173 173 175 179 182 183 183 190 201 213 234 260 287 306 269 218 198 204 225 231 231
89 104 67 76 43 40 45 23 11 94 271 322 337 341 338 298 328 336 329 344 285 325 352 356 356 38 37 4 348 323 326 348 29 174 172 176 170 172 177 174 180 182 182 185 187 188 189 190 190 190 192 195 197 195 198 200 199 200 196 193 193 194 194 196 197 197 200 195 193 192 185 186 187 187 187 186 186 185 186 187 188 187 187 194 205 231 248 255 269 297 262 222 208 205 223 241 247
45 70 64 61 34 39 47 11 16 357 294 312 336 354 355 315 328 313 302 37 313 319 12 5 341 57 51 8 352 334 333 5 27 71 121 153 156 150 150 161 176 180 182 186 187 191 192 194 193 193 195 198 199 196 200 204 201 201 199 198 197 196 197 198 201 201 203 201 202 199 189 190 192 194 197 196 192 190 191 192 192 192 200 215 232 249 252 254 258 282 262 232 228 223 229 243 252
37 66 65 62 33 20 95 39 353 325 302 319 327 340 356 328 332 324 337 14 345 345 3 358 348 346 2 357 353 351 349 2 14 15 18 32 82 132 148 158 170 180 185 189 190 194 196 197 199 198 200 202 204 201 203 204 201 202 201 202 203 201 200 201 204 202 204 205 207 205 196 195 197 199 201 199 195 192 193 194 199 207 222 239 250 255 254 253 251 264 265 243 235 232 237 234 235
57 92 69 67 53 298 162 43 341 338 296 304 310 326 349 325 322 333 354 344 355 12 354 352 355 338 345 349 351 359 3 9 12 358 349 2 16 46 187 172 172 181 185 193 195 195 200 203 205 204 204 206 209 207 209 207 203 205 206 206 207 207 207 208 209 208 209 209 212 208 200 200 202 202 203 201 199 197 197 202 212 222 235 249 255 256 256 252 250 255 260 255 244 243 243 230 225
56 83 72 29 329 302 286 326 327 301 281 301 307 314 328 315 317 352 352 331 4 21 352 346 343 330 332 339 350 0 7 17 18 5 344 338 352 348 327 327 184 191 190 200 201 199 202 206 209 210 211 212 213 213 214 214 209 210 210 210 211 211 212 213 215 216 215 215 216 212 206 206 207 206 205 204 205 206 206 213 220 227 235 246 254 255 253 249 248 250 255 259 254 255 250 236 231
44 61 84 332 323 346 344 331 318 306 282 267 289 324 341 324 345 21 11 6 4 357 339 333 321 315 321 334 355 2 11 20 19 15 7 352 344 339 345 357 344 255 205 207 208 207 208 210 212 212 215 217 217 217 218 219 215 214 215 215 216 217 218 220 221 223 223 219 217 215 211 210 210 208 207 208 211 214 216 220 221 225 232 242 251 255 252 246 244 246 250 252 253 259 256 247 247
70 49 82 311 337 16 337 328 330 326 312 295 333 5 336 326 31 33 30 33 345 326 319 313 307 313 330 356 4 4 16 21 16 17 20 20 15 10 11 14 9 3 2 327 223 213 214 216 216 214 218 220 221 223 222 222 221 218 218 219 221 223 224 225 226 228 229 225 217 214 212 211 212 210 210 213 216 219 223 225 226 227 232 241 252 257 254 248 245 246 251 253 257 264 263 260 261
92 39 360 334 30 27 332 331 348 344 27 26 356 347 336 5 49 32 31 21 332 322 316 310 329 2 21 28 18 16 21 19 16 18 23 26 24 20 21 24 22 21 22 15 360 332 280 240 223 219 221 222 223 224 225 226 226 224 223 224 226 228 229 230 231 233 234 231 220 215 214 214 214 213 214 217 219 222 225 229 230 232 238 246 255 259 255 252 250 253 257 260 264 267 265 263 264
80 64 1 357 24 19 341 335 358 14 46 25 358 28 14 18 57 30 19 359 344 340 343 4 28 34 39 34 25 25 23 22 20 18 23 25 21 22 26 25 23 29 33 26 17 7 349 338 288 244 230 225 225 224 226 229 229 229 228 229 230 232 234 235 236 236 236 235 227 219 218 218 217 216 219 222 223 224 227 230 232 238 246 251 254 254 251 252 253 258 263 265 267 264 262 262 264
58 75 341 341 2 6 357 7 18 28 51 33 42 43 19 3 63 39 13 350 350 346 355 25 38 36 36 31 26 23 22 25 20 17 22 20 19 28 33 28 23 28 27 24 30 28 4 349 335 318 273 234 226 226 228 230 230 229 230 233 235 237 239 241 241 240 237 236 232 225 221 220 219 220 222 225 226 227 230 233 237 245 252 253 252 250 246 247 251 258 263 266 266 262 262 263 264
39 88 298 7 0 4 14 20 19 16 38 42 48 46 22 3 13 36 9 351 348 343 358 22 31 37 34 26 25 25 25 25 20 17 19 18 22 28 28 26 28 28 24 26 33 33 20 7 353 342 332 257 229 228 231 233 232 229 230 233 236 240 243 244 244 243 240 237 235 231 225 223 224 225 227 228 230 232 235 238 244 251 254 252 251 251 248 249 254 259 264 267 266 262 263 264 265
357 263 147 39 347 6 21 17 11 5 56 52 61 55 31 20 36 28 356 350 348 345 6 20 30 38 32 24 24 28 28 24 20 19 19 19 21 19 16 23 29 29 31 34 34 34 31 22 14 3 359 351 245 233 234 234 234 233 234 236 238 242 246 247 247 245 243 239 237 235 231 230 230 232 233 234 235 236 239 244 250 254 253 251 253 253 252 256 259 262 267 271 271 268 268 268 268
13 304 116 8 350 23 19 8 1 351 30 30 94 59 29 26 36 17 346 350 350 351 12 21 31 33 28 27 24 30 29 23 22 25 24 20 17 14 13 17 24 30 34 34 32 36 39 36 33 24 14 11 335 238 235 236 238 239 239 240 242 244 246 248 249 247 244 241 239 236 235 235 235 236 236 238 239 240 243 248 253 253 252 252 253 254 255 258 262 263 267 271 273 274 273 272 272
54 65 72 345 4 31 14 359 350 349 7 345 234 53 22 24 22 3 350 354 349 4 21 21 28 26 23 26 27 35 32 26 27 28 26 21 17 18 18 18 25 33 34 33 35 39 42 42 42 39 33 29 33 68 234 238 240 240 241 243 245 246 247 246 249 249 245 242 240 238 237 237 237 238 239 241 242 243 247 251 253 252 252 252 253 254 255 258 259 261 264 268 271 273 273 275 276
43 38 55 350 13 18 1 357 350 7 9 340 358 81 16 24 17 2 359 357 357 15 24 21 23 22 21 25 27 34 32 30 30 28 24 23 21 18 18 22 31 37 37 37 38 40 43 44 45 44 43 43 47 61 120 233 244 243 243 246 246 247 246 245 248 249 246 243 242 240 239 239 240 241 241 243 245 247 251 253 255 254 253 252 251 253 257 258 258 259 262 265 268 272 273 276 277
22 4 27 17 36 346 337 360 4 15 351 344 51 103 24 28 16 7 4 1 9 19 23 22 22 21 21 25 27 31 32 30 29 27 24 24 23 21 21 24 32 37 39 40 39 41 44 44 47 47 47 50 51 56 73 91 297 254 250 254 254 253 251 249 249 249 248 247 246 244 244 244 245 246 246 246 247 249 253 256 259 259 257 253 251 255 260 260 259 259 260 262 266 269 271 274 276
21 17 20 4 35 336 326 4 17 14 326 354 58 107 33 35 20 11 6 4 14 23 24 22 22 22 22 24 25 28 29 26 26 25 22 23 24 26 27 27 31 36 38 39 39 43 46 46 48 48 50 52 55 57 60 76 72 53 6 303 298 278 268 264 260 258 260 262 260 256 253 250 250 251 253 253 253 253 255 259 263 265 262 257 254 258 264 265 263 261 262 262 265 268 271 274 275
14 50 60 351 5 357 335 357 15 15 356 14 47 88 47 23 19 14 10 7 12 27 27 22 23 21 21 25 22 25 26 23 24 21 18 20 23 27 29 27 32 38 41 41 40 41 44 46 49 48 50 52 58 62 61 68 74 71 68 64 60 58 54 52 54 47 15 340 293 276 264 259 257 257 257 258 259 259 261 263 267 270 268 263 259 261 268 270 267 263 263 264 266 269 272 274 276
359 30 71 347 348 9 352 335 356 16 39 39 47 67 50 18 15 18 14 7 10 29 29 23 24 23 23 24 24 26 26 25 23 19 16 17 21 27 30 30 34 38 40 42 43 41 41 44 47 48 51 55 58 63 66 68 73 76 74 72 69 66 65 62 62 62 59 58 51 31 347 283 271 269 268 265 265 265 266 267 269 271 271 269 265 264 269 272 268 264 264 265 267 270 272 275 278
322 5 52 349 340 39 11 338 340 18 45 53 52 58 45 26 22 21 14 8 17 33 33 27 22 24 24 22 26 26 26 30 23 17 17 19 23 27 31 32 34 35 36 39 42 41 41 42 44 47 51 55 58 61 66 69 72 72 70 71 68 63 63 61 60 59 58 58 57 54 54 50 10 305 293 276 272 271 269 270 272 273 273 273 270 268 269 270 267 264 264 266 267 270 273 276 279
187 207 103 335 337 10 328 313 301 16 52 46 51 60 44 31 26 23 14 10 20 29 33 34 24 22 24 21 24 24 27 28 20 19 20 22 26 28 31 33 34 35 35 36 39 39 39 39 41 44 46 51 58 61 62 65 67 64 62 65 63 58 58 59 58 55 55 57 56 57 58 58 57 50 45 17 303 285 278 278 280 280 277 275 274 273 272 272 271 268 267 268 269 271 273 275 277
155 133 83 272 289 5 315 318 320 286 82 44 52 69 50 40 32 25 18 14 20 20 22 30 26 22 23 21 21 22 24 19 15 20 22 23 27 29 31 33 33 35 35 36 38 37 36 37 39 39 39 45 54 58 59 60 62 63 61 61 59 55 54 55 54 50 51 53 55 57 57 57 58 57 55 52 47 40 13 333 313 305 295 284 279 278 278 277 277 275 272 270 269 269 272 276 276
92 105 69 6 28 32 323 300 325 343 86 37 37 65 48 46 45 34 27 24 21 15 13 19 23 24 22 20 21 20 18 10 12 18 21 23 25 28 31 31 32 33 33 35 36 36 36 37 38 37 37 42 49 55 60 61 63 67 67 66 64 60 56 53 51 47 47 51 55 55 54 54 56 57 57 54 50 48 46 45 40 30 12 335 309 302 298 291 284 281 277 272 271 269 271 275 274
61 48 59 29 8 21 283 272 330 2 76 58 40 66 48 30 54 56 42 36 22 9 9 12 17 24 25 22 20 17 14 11 13 16 18 20 23 26 29 30 32 33 33 34 35 36 36 37 38 37 37 41 45 51 58 63 66 70 71 70 67 65 61 57 53 49 46 49 53 53 52 52 53 54 54 54 53 50 49 48 47 45 42 39 30 18 2 343 323 307 293 281 274 271 271 273 270
55 49 73 278 309 333 250 268 1 17 77 166 279 73 55 2 40 64 67 71 34 1 4 9 13 23 27 26 21 18 17 15 16 17 17 19 22 25 28 29 31 32 32 33 34 35 36 37 38 38 38 40 43 48 54 63 68 69 70 70 68 66 62 59 57 52 47 47 50 51 50 50 51 52 51 50 49 49 49 49 50 48 45 46 44 40 35 28 20 10 353 325 298 281 273 272 272
353 63 107 241 288 303 292 327 21 9 23 327 275 245 319 344 3 19 63 95 72 10 359 4 8 15 23 27 25 22 22 19 17 17 17 20 24 26 28 30 32 33 32 32 33 35 37 38 40 40 40 41 42 45 50 59 64 65 66 65 62 59 54 51 51 48 45 45 46 48 48 48 49 51 51 49 47 46 46 45 47 49 46 45 45 42 39 34 30 28 24 16 1 336 305 288 279
318 295 195 233 249 278 315 21 14 348 351 351 8 248 277 306 335 352 356 25 81 62 10 358 359 8 16 22 25 23 21 22 21 21 19 20 24 27 28 30 33 34 33 33 35 38 40 41 43 43 42 43 43 45 47 53 58 59 61 60 56 55 50 46 47 47 45 45 47 48 48 48 48 48 48 48 46 44 43 41 42 45 44 42 41 40 39 35 31 28 25 22 18 13 2 342 312
355 301 260 230 197 232 358 60 19 317 265 322 32 135 260 296 307 316 326 318 71 97 39 342 351 8 12 13 24 25 17 17 19 21 21 22 25 26 27 30 32 34 34 38 40 41 42 44 46 46 46 46 45 46 48 52 54 56 59 60 58 58 56 53 51 52 52 50 50 51 50 48 48 48 47 45 44 43 42 41 39 40 42 40 38 37 36 34 31 28 27 25 21 19 17 11 355
318 313 343 142 136 144 139 106 100 255 269 315 15 78 227 298 271 250 288 319 303 63 326 298 2 21 6 1 19 30 22 12 12 19 21 24 27 28 29 31 34 37 39 42 43 43 44 46 48 49 49 49 48 49 52 53 54 55 58 60 60 59 59 57 53 52 52 50 50 50 48 48 47 48 47 45 44 42 41 41 38 38 38 38 37 36 35 33 31 28 26 25 24 22 19 14 9
272 286 30 114 125 120 119 97 97 3 27 337 334 21 63 282 275 244 8 335 296 277 266 282 308 22 3 352 4 23 21 7 8 19 21 24 28 30 34 36 38 42 43 45 46 47 47 47 50 51 51 51 51 52 54 56 56 57 57 59 59 57 56 56 53 50 48 46 47 46 45 45 45 46 46 45 44 43 42 41 39 37 37 37 37 36 35 34 32 29 27 26 24 22 20 17 13
267 236 57 59 57 53 61 68 80 34 50 311 300 6 79 281 287 289 324 268 265 259 241 255 265 231 204 313 341 2 1 355 4 15 21 25 30 33 38 43 44 45 47 49 50 51 51 50 51 52 51 51 52 54 56 57 58 58 57 57 57 55 53 53 51 48 45 44 44 44 44 44 43 43 44 44 43 42 43 43 41 39 37 37 37 35 35 34 33 31 31 30 28 23 19 18 16
271 73 38 23 16 30 42 33 63 50 7 265 269 346 93 313 286 240 233 225 214 233 250 251 247 232 226 243 256 318 333 335 348 5 17 26 34 40 43 45 45 46 49 51 51 52 53 53 53 54 53 53 54 55 56 57 58 58 58 57 56 54 52 50 48 46 44 44 44 43 43 43 42 42 42 42 42 41 43 43 41 39 37 37 36 35 35 34 34 33 32 31 28 25 20 18 16
75 69 50 19 326 1 20 351 34 61 294 256 261 302 130 187 266 230 224 231 202 201 231 232 231 232 234 244 246 249 278 307 329 351 6 20 30 38 44 45 45 47 49 50 51 51 53 53 55 56 55 55 55 56 57 57 57 58 58 58 56 54 52 51 49 46 44 43 43 43 43 42 41 41 40 40 39 40 41 41 39 38 37 36 35 35 34 34 34 33 33 30 26 24 22 20 18
43 44 59 39 332 4 7 332 10 63 253 255 348 347 263 222 246 217 211 230 220 207 213 210 210 218 225 236 241 242 256 279 296 317 333 356 16 27 42 49 49 51 51 52 53 53 53 53 54 56 55 55 57 58 59 59 58 58 58 58 57 55 54 53 51 49 47 46 45 43 42 41 40 39 38 37 37 38 39 38 37 37 36 35 34 33 32 32 31 31 31 29 25 24 22 21 19
22 70 90 61 50 32 330 292 329 288 273 289 347 7 317 277 266 212 205 218 215 206 205 202 200 203 212 220 227 248 263 260 255 267 289 310 336 7 45 60 61 61 60 59 58 56 56 55 55 57 56 56 58 58 60 60 59 59 59 59 59 57 56 55 54 52 50 49 47 46 44 42 40 39 38 37 36 38 39 38 37 36 35 34 33 32 31 30 29 29 29 26 24 22 20 20 18
351 154 125 117 143 121 271 243 248 281 290 302 326 2 211 252 278 223 218 229 225 211 203 204 216 221 227 242 255 262 261 249 237 238 248 255 258 268 89 86 78 75 71 67 65 61 59 58 57 58 58 57 57 58 59 60 60 60 60 60 60 59 58 57 57 55 53 52 50 48 46 43 42 40 38 38 36 36 37 37 36 35 34 33 32 31 30 29 28 27 26 24 22 19 18 17 15
319 148 79 46 168 146 159 188 187 210 304 304 296 244 221 225 264 260 252 277 249 227 213 204 230 248 253 263 259 248 247 247 238 236 242 241 233 221 202 154 114 96 85 77 72 67 64 61 61 61 60 59 58 59 59 60 60 60 60 60 60 60 59 58 57 55 54 53 51 49 48 45 42 40 39 37 36 35 34 34 33 33 32 31 30 29 28 27 26 25 23 21 19 17 16 15 12
349 48 41 242 173 125 113 209 211 108 8 290 281 270 288 313 298 285 116 219 242 229 222 213 221 237 239 243 246 240 241 241 234 233 236 235 229 221 211 189 165 137 111 96 83 76 70 66 64 65 65 64 61 60 60 60 60 60 60 59 59 58 58 57 55 53 52 51 50 49 47 46 43 40 39 37 36 35 33 32 31 30 29 28 27 27 25 24 23 22 21 19 16 14 13 13 10
51 33 230 201 79 77 95 7 346 42 11 288 308 280 292 329 316 312 177 226 244 233 224 227 229 231 232 236 239 238 238 238 239 240 238 236 232 226 218 206 190 171 148 124 100 87 80 72 68 67 67 67 66 63 61 59 58 59 59 59 58 57 56 55 53 51 49 47 47 46 44 43 41 39 38 36 35 33 32 31 29 27 26 25 24 23 22 21 20 18 17 15 13 10 9 9 7
80 116 192 110 71 11 24 48 3 16 336 297 307 299 270 216 223 261 221 221 231 226 219 227 231 226 225 233 238 240 243 247 248 244 241 239 235 230 223 213 203 191 176 153 126 107 94 85 77 73 72 70 69 66 63 61 58 57 57 56 57 57 56 54 52 48 46 44 43 42 40 39 37 35 34 32 31 30 29 28 26 25 23 22 21 19 18 17 15 14 12 10 8 6 5 3 2
23 40 8 37 119 145 13 40 76 200 299 302 318 329 284 228 212 202 212 221 220 215 213 220 226 224 222 226 231 234 233 231 232 231 234 236 235 232 224 217 213 207 197 183 164 144 120 106 93 84 81 75 70 66 62 60 57 54 51 48 48 49 49 49 48 44 43 42 40 38 38 36 33 31 29 27 26 24 22 21 21 19 18 17 16 15 13 12 11 9 7 5 3 1 1 358 356
355 11 1 358 47 113 100 14 70 125 145 211 325 317 277 244 203 190 212 223 213 206 208 218 225 223 223 225 225 228 225 222 225 224 227 231 233 231 226 222 221 215 211 208 200 186 166 135 109 92 78 69 62 55 53 51 49 47 41 37 35 35 37 37 37 36 35 34 33 31 30 28 27 26 25 23 21 19 17 16 15 13 12 10 9 8 7 6 5 3 2 360 358 356 355 353 351
175 218 223 161 55 86 71 332 328 84 130 171 161 292 277 259 193 200 217 220 217 212 207 219 228 223 223 225 222 223 224 222 224 223 225 228 230 230 227 223 221 221 222 222 218 213 210 207 188 174 284 21 21 24 35 35 36 37 30 28 27 25 25 23 22 24 24 23 23 21 19 18 18 18 18 17 16 14 13 11 9 8 6 4 2 0 360 358 357 355 354 353 352 351 349 348 346